Regional Weather Roundup
Issued by NWS Cleveland, OH

Home | Current Version | Previous Version | Text Only | Print | Product List | Glossary Off
Versions: 1 2 3 4 5 6 7 8 9 10 11 12 13 14 15 16 17 18 19 20 21 22 23 24 25 26 27 28 29 30 31 32 33 34 35 36 37 38 39 40 41 42 43 44 45 46 47 48 49 50

000
ASUS41 KCLE 282310
RWRCLE
OHIO REGIONAL WEATHER ROUNDUP
NATIONAL WEATHER SERVICE WILMINGTON, OH
700 PM EDT SAT MAR 28 2015

NOTE: "FAIR" INDICATES FEW OR NO CLOUDS BELOW 12,000 FEET WITH NO
SIGNIFICANT WEATHER AND/OR OBSTRUCTIONS TO VISIBILITY.

OHZ001>008-015>018-024>027-034-035-043-044-290000-
   NORTHWEST OHIO

CITY           SKY/WX    TMP DP  RH WIND       PRES   REMARKS
DEFIANCE       SUNNY     36  11  35 N5        30.28S
FINDLAY        CLEAR     34  11  38 NW9       30.28R WCI  27
TOLEDO EXPRESS CLEAR     35   8  32 W9        30.27R WCI  28
TOLEDO EXEC    CLEAR     35   9  33 W10       30.29R WCI  27
LIMA           CLEAR     33  13  43 N7        30.28R WCI  27
$$

OHZ009>014-019>023-028>033-038-089-290000-
   NORTHEAST OHIO

CITY           SKY/WX    TMP DP  RH WIND       PRES   REMARKS
CLE-HOPKINS    CLEAR     26   8  46 NW8       30.31R WCI  18
CLE-LAKEFRONT  CLEAR     26  14  60 W10       30.29R WCI  16
CUY CO. ARPT   PTCLDY    27  14  59 N14       30.27R WCI  15
LORAIN-ELYRIA  CLEAR     26  11  52 N5        30.29R WCI  20
ASHTABULA      CLEAR     25   9  50 N9        30.25R WCI  15
AKRON-CANTON   PTCLDY    26   8  46 N13       30.24R WCI  15
WOOSTER        CLEAR     26  11  52 NW13      30.27R WCI  15
MANSFIELD      PTCLDY    26  12  55 NW12      30.26R WCI  16
YOUNGSTOWN     CLEAR     25   7  46 NW14      30.22R WCI  13
$$

OHZ042-051>053-060>062-070>072-077>081-290000-
  SOUTHWEST OHIO

CITY           SKY/WX    TMP DP  RH WIND       PRES   REMARKS
CINC-COVINGTON SUNNY     36   9  32 N9        30.28R
CINC-LUNKEN    SUNNY     36  11  35 N5        30.31R
HAMILTON       SUNNY     36  13  38 N7        30.31R
DAYTON         MOSUNNY   33  13  43 NW7       30.30R WCI  27
WRIGHT-PAT AFB PTCLDY    33  10  38 N6        30.29R WCI  28
DAYTON GENERAL SUNNY     34  12  40 NW7       30.28R WCI  28
WILMINGTON     CLEAR     32  11  41 N7        30.28R WCI  26
$$

OHZ036-037-039>041-045>050-054>059-063>069-073>076-082>088-290000-
  CENTRAL AND SOUTHEAST OHIO

CITY           SKY/WX    TMP DP  RH WIND       PRES   REMARKS
COLUMBUS       CLEAR     31  12  45 N10       30.29R WCI  22
OSU AIRPORT    PTCLDY    30  10  43 NW9       30.29R WCI  22
BOLTON FIELD   CLEAR     30  12  47 NW7       30.29R WCI  23
RICKENBACK AFB CLEAR     31  10  41 NW8       30.29R WCI  24
NEWARK         CLEAR     30  11  45 NW7       30.28R WCI  23
MARION         CLEAR     29  11  47 VRB7      30.29R WCI  22
LANCASTER      CLEAR     31  14  49 N9        30.29R WCI  23
ZANESVILLE     PTCLDY    29   9  43 NW9       30.26R WCI  20
NEW PHILLY     CLEAR     29   9  43 NW10G21   30.27R WCI  20
$$



USA.gov is the U.S. government's official web portal to all federal, state and local government web resources and services.